Temp_Advection
nan nan nan nan nan nan nan nan nan nan nan nan nan nan nan nan nan nan nan nan nan nan nan nan nan nan nan nan nan nan nan nan nan nan nan nan nan nan nan nan nan nan nan nan nan nan nan
nan -0 0 0 0 0 0 0 0 0 0 0 0 0 0 0 -0 -0 0 -0 -0 0 0 0 -0 0 -0 -1 0 0 0 -0 -0 -0 -0 0 0 0 0 0 -0 -0 -0 -0 -0 -0 nan
nan -0 0 0 0 0 0 0 0 0 0 0 0 0 0 0 0 -0 -0 -1 0 -0 0 1 1 -0 -2 0 1 0 0 -0 -0 0 0 1 1 0 0 -0 0 -0 -0 -0 -0 0 nan
nan -0 -0 0 0 0 0 0 0 0 0 0 0 0 0 0 -0 0 -0 -0 -0 0 1 1 1 -0 -0 0 0 0 0 0 -0 -0 0 0 0 1 0 -0 0 0 -0 -0 -0 -0 nan
nan -0 -0 -0 -0 -0 0 0 0 0 0 0 1 0 -0 -0 0 0 0 -0 -0 0 0 1 1 0 0 0 0 0 0 0 0 0 -0 -0 -0 0 0 -0 -0 0 0 -0 -0 -0 nan
nan -0 -0 -0 0 0 0 0 0 0 0 0 0 0 0 -0 -0 -0 0 -0 0 -0 -0 0 0 -0 -0 0 0 0 0 0 0 0 0 0 -0 0 -0 0 -0 -0 -0 0 -0 -0 nan
nan -0 0 0 0 0 0 0 0 0 0 0 0 0 0 0 -0 -0 0 0 -0 -0 0 1 0 -0 0 1 0 0 0 0 0 -0 -0 0 0 0 0 -0 -0 -0 -0 -0 -0 -0 nan
nan 0 0 0 0 0 0 0 0 0 -0 -0 0 0 0 -0 -0 -0 -0 -0 0 0 0 0 -0 -0 0 0 0 -0 0 0 -0 -0 0 -1 -1 -0 0 0 0 0 -0 -0 -0 -0 nan
nan 0 0 0 0 0 0 0 0 0 0 -0 -0 -0 -0 0 -0 -0 -0 -0 -0 1 0 -1 0 0 0 0 -0 -0 0 0 0 0 -0 -1 -0 0 0 0 0 0 -0 -0 -0 0 nan
nan 0 0 0 0 0 0 0 0 0 0 0 -0 -0 -0 -0 0 0 0 0 0 0 -0 0 0 0 0 0 -0 0 0 0 0 0 -0 -1 0 0 0 -0 -0 0 -0 0 -0 -0 nan
nan 0 0 0 0 0 0 0 0 0 0 0 0 -0 -0 -0 0 0 0 -0 0 0 0 -0 -0 0 0 0 0 0 0 1 -0 0 0 -0 0 0 -0 -0 -0 -0 0 0 -0 -0 nan
nan 0 0 0 0 0 0 0 -0 0 0 0 0 0 -0 -0 -0 -0 0 -0 -0 -0 -0 0 0 0 0 -0 0 0 0 -0 0 0 -1 -0 -0 -0 -0 0 -0 0 -0 -0 -0 -0 nan
nan 0 0 0 0 0 0 0 0 0 0 0 0 0 0 -0 -0 0 -0 -0 0 -0 -0 0 0 0 -0 -0 0 0 0 0 -0 -0 0 0 -0 0 0 0 0 -0 -0 0 0 -0 nan
nan 0 0 0 0 0 0 1 0 1 0 0 0 -0 -0 0 0 0 0 0 -1 -0 0 0 0 0 -0 0 0 0 -0 -0 0 0 -0 -0 0 -0 -0 -0 -0 -0 -0 -0 -0 -0 nan
nan 0 0 0 0 0 0 0 1 0 0 0 0 -0 -0 0 0 0 0 -0 0 0 -0 -0 -0 0 -0 0 0 -0 -0 -0 -0 -0 -0 -0 -0 0 0 0 -0 0 0 -0 0 0 nan
nan -0 -0 0 0 0 0 0 0 0 0 0 0 0 1 0 0 0 -0 -0 0 0 0 -0 0 -0 0 -0 -0 -0 -0 -0 -0 -0 -0 0 -0 -0 -0 0 0 -0 0 0 -0 -0 nan
nan -0 -0 -0 0 0 0 0 0 1 0 0 -0 -0 1 0 0 -0 -0 0 -0 -0 -0 -0 0 0 -0 -0 -0 -0 -0 -0 -0 -0 0 -0 0 -0 -0 -0 -0 -0 -0 -0 0 -0 nan
nan -0 -0 -0 -0 -0 -0 0 0 0 0 0 -0 0 0 0 0 -0 -0 -0 -0 -0 -0 -0 -0 0 -0 -0 0 -0 -0 -0 -0 0 0 0 -0 -0 -0 -0 -0 -0 -0 -0 -0 0 nan
nan -0 -0 -0 -0 -0 -0 -0 -0 -0 -0 -0 -0 -0 -0 -0 -0 -0 -0 0 0 0 -0 -0 -0 -0 -0 0 -0 -0 -0 -0 0 0 -0 -0 0 -0 -0 -0 -0 -0 0 -0 0 0 nan
nan -0 -0 -0 -0 -0 -0 -0 -0 -0 -0 -0 -0 -0 -0 -1 0 0 -0 -0 -0 -0 0 -0 -0 -0 -0 0 0 0 -0 -0 0 0 -0 -0 -0 -0 -0 -0 0 0 -0 0 0 -0 nan
nan -0 -0 -0 -0 -0 -0 -0 -0 -0 -0 -0 -0 -0 -0 -0 -0 -0 -0 -0 -0 -0 0 -0 -0 -0 -0 0 -0 -0 -0 -0 -0 0 -0 -0 0 0 -0 -0 0 -0 -0 0 0 -1 nan
nan -1 -0 -0 -0 -0 -0 -0 -0 -0 -0 -1 -0 0 -0 -0 -0 0 -0 0 -0 0 -0 -0 -0 -0 -0 -0 -0 -0 0 -0 0 -0 -0 0 0 0 -0 -0 0 0 -1 -0 -0 -0 nan
nan -1 -1 -1 -1 -0 -0 -0 -0 -0 -1 -0 -0 -0 0 -0 0 0 -0 -0 -0 -0 0 -0 -0 -0 0 -0 -0 -0 -0 -0 -0 -0 0 -0 0 -0 -0 -0 -0 -1 -0 0 -0 -0 nan
nan -0 -0 -0 -1 -1 -1 -0 -0 -0 -1 -0 -0 -0 -0 0 0 -0 0 0 -0 0 -0 0 0 0 -0 -0 -0 -0 -0 -0 -0 0 0 0 0 0 -0 -0 -0 0 -0 -0 0 -0 nan
nan -0 -0 -0 -1 -1 -1 -1 -0 -0 -0 -0 -0 -0 -0 -0 0 0 0 -0 0 0 0 -0 0 0 -0 -0 -0 -0 -0 0 0 -0 0 -0 0 0 -0 -0 -0 0 0 0 0 0 nan
nan -0 -0 0 -0 -1 -1 -1 -0 -1 -0 -0 -0 -0 -0 -0 0 0 0 -0 -0 0 0 0 0 -0 0 -0 -0 -0 -0 0 -0 -0 -0 -0 -0 0 0 -0 -0 -0 -0 0 0 0 nan
nan 0 0 0 0 -0 -0 -0 -0 -0 -0 -0 -0 -0 -0 -0 0 0 -0 0 0 -0 -0 0 -0 -0 -0 -0 -0 -0 0 -0 -0 0 -0 0 -0 -0 -0 -0 -1 0 -0 0 -0 0 nan
nan 0 0 0 0 0 -0 -0 -0 0 0 -0 -0 -0 0 -0 -0 0 0 0 0 -0 -0 -0 -0 -0 -0 -0 -0 0 0 0 -0 -0 -0 -0 -1 -0 -0 -0 -0 0 0 -0 -0 -0 nan
nan nan nan nan nan nan nan nan nan nan nan nan nan nan nan nan nan nan nan nan nan nan nan nan nan nan nan nan nan nan nan nan nan nan nan nan nan nan nan nan nan nan nan nan nan nan nan
Wind_Speed
19 19 17 17 17 12 13 18 21 26 25 26 26 27 27 25 24 25 24 25 27 31 28 22 26 25 15 15 8 13 17 11 18 13 16 27 26 16 15 9 13 14 9 11 11 9 7
20 20 19 17 16 15 11 14 18 20 24 27 26 25 23 24 20 26 24 26 24 21 16 16 19 17 18 11 10 13 11 15 11 10 19 25 17 12 13 7 3 11 17 13 10 9 6
21 20 20 20 18 16 14 12 14 18 23 24 25 24 26 26 24 23 20 24 24 24 22 21 17 20 33 6 10 11 11 14 16 9 14 14 15 8 16 13 17 20 14 11 8 5 4
23 21 20 21 21 19 16 14 13 15 18 17 23 23 24 22 21 20 18 20 23 29 34 35 30 27 21 12 13 13 11 14 11 11 14 11 12 15 8 19 9 7 8 7 5 2 3
26 24 22 20 21 21 19 15 14 13 13 12 18 23 17 23 24 20 18 15 19 20 23 21 26 22 8 12 10 12 11 11 12 12 13 11 8 10 12 12 8 5 8 8 6 2 0
27 26 24 22 20 20 20 17 14 11 10 10 14 17 17 9 12 14 26 32 16 12 9 14 16 10 10 8 14 13 15 9 7 10 9 5 4 7 10 10 7 10 9 5 7 3 3
25 26 25 23 21 19 18 17 15 10 6 8 13 14 15 17 10 13 16 11 14 16 25 24 15 14 9 12 14 13 14 9 7 7 6 2 10 10 7 5 5 11 8 9 5 3 3
23 24 25 25 23 20 17 15 14 13 9 7 9 10 9 11 13 12 15 13 13 15 20 20 20 16 14 12 11 13 13 6 6 7 6 12 10 5 2 3 7 7 9 6 3 1 3
21 22 24 25 26 24 20 15 12 12 11 10 10 10 8 1 5 8 19 19 12 9 8 18 13 13 12 14 11 14 9 6 12 11 8 9 6 2 6 8 10 9 2 3 3 2 5
19 20 22 24 26 26 25 20 14 11 10 11 11 11 8 3 2 3 1 0 1 2 4 12 11 11 12 3 6 12 8 4 5 7 8 10 3 5 7 8 6 6 4 3 3 3 2
16 19 21 23 25 26 27 26 19 12 11 10 12 12 10 3 1 1 2 1 2 2 4 10 7 6 11 8 2 12 11 13 11 5 2 3 6 6 8 5 7 5 2 3 2 1 4
15 17 20 22 23 25 27 28 25 17 9 8 10 16 12 5 2 1 2 2 2 1 5 4 5 7 6 14 8 5 7 9 4 15 15 9 4 6 5 8 8 6 2 1 1 1 2
15 16 18 20 22 25 27 28 28 24 12 6 6 12 15 7 1 1 2 2 3 5 1 2 4 3 10 7 6 5 9 8 4 4 4 5 7 4 4 3 2 1 2 0 2 1 2
15 16 17 18 22 23 26 29 30 28 14 7 6 9 15 11 4 4 3 0 9 1 2 1 1 6 4 4 5 4 3 5 7 3 4 2 3 3 3 5 4 4 4 1 3 2 4
14 15 17 18 20 23 25 27 30 30 17 9 5 6 21 11 6 3 1 6 4 2 3 2 2 1 3 4 1 2 5 3 3 4 2 2 3 3 4 2 4 2 1 1 1 3 2
14 16 17 18 19 21 24 26 28 30 25 10 5 4 20 11 9 7 5 5 3 1 2 2 2 2 2 3 1 2 1 2 2 3 6 1 3 1 3 2 2 3 3 2 2 2 4
12 14 15 16 18 19 22 25 27 29 29 12 7 3 20 10 8 6 4 5 4 2 2 3 2 2 3 2 2 2 3 3 1 1 4 1 3 3 2 7 5 3 3 3 2 2 3
11 12 13 15 16 17 20 23 25 28 29 15 5 2 18 9 4 5 4 3 2 3 0 1 2 2 2 1 2 2 3 4 2 1 1 3 3 3 2 3 4 6 6 8 3 5 4
11 12 13 13 15 16 18 21 23 26 28 18 3 5 13 10 4 4 2 3 2 1 1 1 0 2 1 0 1 1 2 2 3 1 3 2 1 2 3 4 4 5 7 8 7 4 10
11 12 13 13 13 15 16 19 21 23 24 16 4 2 7 11 6 4 2 2 1 1 0 1 1 1 2 2 1 1 2 2 2 0 1 0 2 7 4 3 1 5 8 11 12 5 7
12 10 10 12 12 13 15 17 18 19 20 13 6 3 3 3 7 6 2 1 1 1 1 1 2 6 2 2 2 3 3 4 4 3 1 3 5 3 10 12 11 14 14 14 18 20 11
11 12 12 12 12 12 13 14 15 16 16 11 4 3 2 2 1 3 1 2 2 0 2 1 3 4 4 3 5 4 3 4 4 7 5 4 2 4 6 9 9 15 18 19 21 21 21
12 11 11 12 12 12 11 13 13 13 13 7 6 5 1 1 1 2 2 2 2 2 2 1 2 3 3 4 7 8 7 5 4 4 8 4 3 1 4 2 11 14 14 20 14 14 12
13 13 10 9 9 9 10 10 11 11 11 8 7 4 3 1 2 2 1 1 2 2 3 1 2 3 1 1 5 6 7 7 8 11 8 5 6 2 4 6 5 1 2 4 15 9 11
13 12 13 14 10 9 10 10 8 9 7 6 6 4 3 2 1 3 2 3 3 4 4 4 3 2 2 3 3 4 3 3 3 3 8 11 8 4 3 5 11 2 4 4 6 2 6
16 16 15 15 15 14 12 11 11 8 6 4 3 4 2 5 1 1 1 2 2 2 2 1 3 3 3 2 2 3 3 2 3 2 3 8 9 7 3 4 4 4 5 4 2 4 5
19 17 17 18 19 19 17 15 13 11 8 5 3 3 2 3 4 3 3 2 1 1 2 2 2 2 2 3 4 4 3 1 3 3 5 4 6 12 10 5 8 1 7 5 3 4 4
23 20 19 20 21 21 19 18 18 16 12 10 8 5 3 3 8 10 9 6 3 3 4 3 2 3 4 3 3 3 3 2 2 2 5 8 8 5 6 5 8 6 6 4 4 5 14
24 24 21 20 22 23 22 19 18 18 17 14 16 11 8 9 8 13 18 19 17 12 6 5 4 2 3 3 2 3 3 2 4 3 5 5 6 2 8 4 3 3 13 5 7 14 11
Wind_Direction
30 24 21 20 23 27 15 18 24 32 28 22 20 31 28 34 46 50 71 75 81 97 97 113 123 137 126 69 76 135 147 151 156 160 169 164 165 167 162 130 110 111 114 94 98 101 96
25 26 18 21 19 23 15 12 23 27 22 18 21 42 48 37 51 60 74 73 72 83 102 103 116 125 121 53 96 131 126 140 145 152 168 164 163 146 123 99 55 123 112 105 86 86 77
26 28 23 18 26 27 20 11 7 13 20 20 35 51 57 49 58 66 76 75 66 68 64 85 117 100 92 83 63 105 126 145 142 150 154 152 150 155 140 102 112 123 109 107 68 63 73
31 24 27 19 23 31 24 18 9 7 22 35 38 43 57 62 60 72 85 80 75 74 71 76 87 90 86 82 72 85 106 135 151 150 143 122 135 106 105 121 130 121 149 141 72 81 86
35 30 26 23 16 27 33 23 24 23 25 21 15 39 78 79 69 67 79 78 83 77 86 60 58 64 62 74 70 83 94 118 124 140 126 115 119 111 136 143 128 201 164 162 139 77 163
36 34 28 26 20 15 28 32 30 29 25 11 12 30 54 81 87 89 85 76 73 86 93 14 26 85 51 34 68 62 98 102 105 122 104 117 137 132 152 162 169 162 149 169 147 111 211
33 36 32 27 24 15 13 29 33 35 23 355 356 12 38 54 76 126 108 78 88 61 64 66 61 77 52 58 57 58 94 101 104 183 127 96 148 126 88 11 343 152 160 160 104 67 305
30 32 33 29 25 21 10 10 24 31 22 357 346 347 8 63 59 103 102 101 100 105 75 54 61 61 50 33 67 40 46 91 132 118 157 101 90 72 85 93 115 142 133 115 100 103 288
28 26 30 29 26 22 15 4 5 16 18 11 352 340 338 359 112 86 94 107 108 99 75 40 32 30 24 41 38 10 40 68 59 80 91 83 75 83 110 107 105 60 74 106 21 248 237
22 22 24 26 24 22 19 11 358 351 2 8 10 1 347 333 215 202 213 219 90 59 84 8 25 16 356 13 53 22 30 37 57 73 66 65 66 95 101 78 336 123 53 75 22 330 282
17 20 17 22 21 18 17 15 9 353 342 346 3 6 6 1 223 208 265 26 165 129 70 339 11 4 22 70 350 21 27 58 67 25 230 77 77 75 70 26 347 92 76 57 7 8 13
14 15 17 16 17 15 15 14 9 3 347 340 9 13 3 23 9 297 313 352 26 53 58 29 24 9 86 51 50 53 60 70 75 70 71 90 83 34 58 53 59 124 141 187 251 320 268
3 8 13 10 12 13 9 9 10 6 354 340 338 3 7 14 296 138 84 107 38 53 228 47 43 30 71 63 64 54 59 52 59 62 28 88 48 77 18 99 102 278 255 222 207 224 294
359 0 3 9 6 11 8 6 6 9 13 4 357 16 15 14 40 113 108 220 61 226 54 40 345 79 80 0 65 68 99 91 62 49 137 127 141 14 4 29 15 43 344 9 258 304 4
356 357 358 2 5 6 7 7 4 7 10 15 2 14 15 18 25 83 258 54 138 129 96 167 204 158 99 98 32 83 53 63 41 9 33 152 101 114 53 35 324 92 182 17 295 145 261
352 356 357 357 0 6 5 5 7 6 8 15 10 2 5 19 41 67 59 98 99 88 135 234 25 329 100 75 197 143 146 52 54 2 347 107 119 184 128 210 88 318 130 170 176 300 275
349 357 360 360 359 4 5 5 7 8 10 11 31 5 359 5 52 49 66 67 105 127 352 333 71 90 46 46 25 73 67 115 37 88 339 270 302 124 208 206 179 163 200 212 319 252 282
338 353 1 2 4 3 5 7 8 11 11 11 34 18 358 18 29 43 57 50 95 131 283 350 315 35 26 54 51 53 64 48 83 114 79 58 326 181 200 80 327 287 252 199 227 187 235
332 342 353 1 4 4 4 7 9 10 12 13 38 5 15 44 46 56 80 89 43 131 202 297 326 339 356 38 321 78 109 85 137 135 10 44 215 204 197 188 189 241 221 236 265 303 246
320 331 340 355 1 0 3 7 8 9 10 14 35 17 23 47 45 52 82 86 97 75 85 324 349 277 219 209 156 161 177 98 165 119 42 4 284 270 297 13 22 202 211 212 220 240 255
305 317 328 338 351 358 359 3 5 9 11 13 38 85 32 12 34 32 348 4 129 225 254 229 231 248 257 257 221 217 178 160 178 175 182 281 267 251 266 272 264 263 262 220 220 222 241
290 303 316 326 333 347 355 358 2 5 11 36 46 346 46 91 35 336 8 56 316 227 242 167 246 360 256 278 333 336 226 220 217 182 199 183 272 320 286 266 276 267 255 250 251 246 254
276 293 302 312 322 331 343 349 354 5 15 42 30 23 15 153 343 311 55 23 16 313 148 267 293 282 253 306 323 285 286 290 307 222 205 206 232 277 267 13 305 275 262 226 231 239 254
274 288 297 292 301 314 322 339 345 355 15 34 25 18 323 22 307 353 174 248 268 262 291 275 237 257 78 284 293 274 261 266 241 235 255 228 226 250 275 294 239 15 19 269 209 224 233
264 273 287 296 288 285 297 307 330 337 348 5 13 19 334 288 290 260 237 235 264 254 241 250 239 261 284 294 270 261 204 229 227 290 232 243 228 260 258 252 287 221 173 169 178 172 200
256 269 273 279 283 289 286 285 302 318 315 328 348 2 348 310 158 173 254 217 290 265 226 227 279 258 185 235 234 254 256 349 187 192 343 228 258 235 199 261 257 72 141 159 151 206 149
250 262 266 271 277 280 274 272 280 289 295 288 287 309 322 283 268 215 231 290 173 254 265 179 182 181 195 234 227 234 239 62 251 220 160 168 216 228 237 265 287 139 146 148 237 90 16
248 254 265 276 273 265 262 262 259 265 267 269 264 266 260 259 280 267 256 222 212 225 281 121 210 184 186 230 264 248 245 194 259 182 178 183 183 198 209 237 267 121 145 232 25 345 349
242 249 258 276 274 263 259 260 258 259 255 252 262 260 259 245 251 276 281 272 253 243 256 220 298 195 187 204 234 299 254 234 246 248 200 226 220 222 213 233 85 253 281 279 323 318 325
Height
1524 1521 1518 1515 1512 1510 1508 1504 1501 1497 1492 1486 1480 1473 1469 1465 1460 1455 1451 1447 1445 1443 1442 1444 1446 1447 1451 1455 1467 1465 1468 1469 1473 1475 1478 1481 1482 1483 1485 1490 1490 1496 1502 1506 1507 1509 1512
1525 1522 1519 1516 1513 1510 1508 1506 1503 1499 1495 1490 1484 1477 1471 1470 1467 1462 1460 1457 1453 1452 1450 1450 1451 1449 1451 1464 1468 1471 1470 1473 1475 1478 1481 1482 1483 1484 1489 1492 1489 1498 1502 1506 1509 1511 1515
1527 1524 1521 1517 1513 1510 1508 1507 1504 1501 1497 1493 1487 1482 1477 1474 1472 1470 1467 1465 1461 1458 1456 1455 1456 1456 1457 1476 1470 1472 1473 1475 1478 1481 1482 1484 1487 1487 1491 1494 1499 1500 1502 1506 1512 1514 1516
1529 1525 1523 1519 1515 1511 1509 1507 1505 1502 1499 1495 1491 1487 1484 1479 1477 1475 1473 1471 1468 1467 1465 1462 1464 1465 1473 1477 1476 1476 1478 1479 1483 1484 1484 1487 1488 1488 1491 1496 1501 1498 1499 1504 1514 1515 1517
1531 1528 1524 1521 1518 1513 1510 1507 1505 1503 1501 1497 1494 1491 1487 1485 1482 1480 1478 1477 1475 1475 1472 1469 1470 1471 1482 1482 1481 1481 1483 1484 1485 1486 1486 1488 1490 1490 1495 1492 1496 1499 1504 1499 1514 1516 1516
1533 1530 1526 1523 1519 1516 1512 1509 1506 1504 1502 1500 1496 1494 1491 1488 1487 1486 1484 1482 1481 1481 1479 1476 1478 1481 1487 1489 1486 1485 1485 1487 1488 1490 1491 1492 1491 1489 1490 1490 1497 1497 1503 1504 1505 1516 1516
1535 1532 1528 1524 1521 1517 1513 1511 1508 1505 1503 1501 1499 1496 1494 1491 1489 1488 1485 1486 1489 1489 1487 1488 1490 1489 1490 1490 1490 1490 1490 1493 1493 1492 1490 1491 1489 1494 1494 1496 1486 1490 1495 1503 1510 1518 1515
1538 1534 1531 1527 1523 1519 1515 1512 1509 1506 1504 1501 1500 1498 1497 1496 1492 1489 1489 1488 1488 1492 1492 1494 1494 1494 1494 1493 1493 1493 1495 1496 1493 1495 1493 1492 1505 1507 1505 1500 1494 1494 1498 1507 1517 1519 1519
1539 1536 1532 1529 1525 1521 1517 1513 1509 1507 1504 1502 1499 1497 1497 1497 1496 1495 1491 1492 1492 1491 1492 1499 1499 1498 1499 1499 1500 1498 1498 1499 1496 1495 1493 1495 1512 1509 1503 1501 1501 1505 1500 1512 1515 1518 1519
1541 1538 1534 1530 1527 1523 1519 1515 1511 1507 1505 1502 1499 1496 1495 1494 1496 1493 1493 1493 1492 1492 1495 1508 1504 1506 1504 1501 1503 1503 1501 1503 1503 1505 1502 1508 1514 1509 1507 1510 1508 1507 1519 1519 1518 1514 1514
1542 1539 1537 1532 1528 1524 1520 1516 1512 1508 1504 1502 1499 1497 1494 1492 1492 1492 1494 1492 1492 1492 1499 1512 1510 1509 1506 1505 1509 1507 1505 1504 1505 1506 1506 1519 1514 1512 1512 1520 1515 1519 1521 1520 1520 1517 1527
1543 1540 1538 1534 1529 1525 1521 1517 1513 1509 1505 1502 1500 1497 1494 1493 1492 1491 1491 1492 1493 1497 1513 1515 1513 1511 1508 1507 1509 1510 1509 1509 1510 1509 1512 1518 1522 1522 1522 1523 1520 1523 1521 1521 1520 1518 1528
1545 1542 1538 1536 1531 1527 1522 1517 1513 1508 1504 1502 1501 1499 1495 1493 1493 1491 1490 1492 1498 1504 1521 1516 1514 1512 1508 1511 1511 1512 1510 1511 1511 1526 1531 1517 1523 1525 1525 1521 1524 1521 1517 1522 1522 1526 1510
1545 1542 1539 1536 1533 1529 1524 1520 1514 1508 1503 1502 1501 1500 1497 1494 1492 1491 1491 1492 1501 1519 1513 1515 1514 1510 1510 1512 1513 1513 1511 1514 1517 1513 1516 1523 1531 1526 1528 1526 1523 1525 1522 1526 1525 1511 1506
1545 1543 1540 1536 1533 1530 1526 1522 1517 1511 1505 1502 1501 1499 1497 1495 1493 1492 1494 1501 1516 1510 1513 1513 1512 1507 1510 1511 1510 1509 1513 1515 1518 1516 1513 1517 1525 1529 1529 1527 1528 1527 1525 1531 1533 1531 1529
1546 1544 1541 1537 1534 1530 1527 1523 1518 1513 1507 1503 1502 1500 1499 1496 1495 1495 1497 1509 1512 1515 1516 1515 1508 1510 1506 1510 1509 1509 1512 1518 1518 1519 1519 1515 1521 1526 1529 1530 1530 1526 1528 1528 1527 1529 1518
1546 1543 1541 1538 1535 1531 1528 1524 1520 1515 1509 1505 1503 1504 1502 1498 1496 1499 1506 1512 1515 1518 1518 1515 1512 1510 1509 1510 1511 1511 1514 1521 1520 1521 1521 1517 1516 1529 1530 1525 1518 1529 1525 1527 1525 1524 1518
1545 1543 1540 1538 1535 1532 1529 1525 1521 1516 1511 1507 1505 1507 1505 1501 1502 1504 1509 1514 1518 1519 1520 1518 1517 1514 1512 1514 1512 1512 1514 1518 1523 1523 1519 1522 1517 1519 1517 1523 1524 1519 1516 1517 1516 1521 1516
1543 1541 1540 1538 1535 1532 1530 1526 1522 1518 1513 1508 1509 1509 1508 1503 1507 1512 1518 1519 1520 1520 1520 1520 1518 1519 1518 1515 1516 1516 1518 1524 1524 1524 1522 1523 1518 1517 1518 1523 1524 1523 1518 1519 1516 1521 1514
1542 1540 1539 1537 1535 1532 1530 1527 1523 1520 1516 1511 1511 1513 1513 1512 1515 1514 1517 1519 1520 1522 1522 1522 1521 1521 1519 1517 1519 1518 1519 1525 1526 1526 1527 1526 1520 1517 1508 1512 1512 1517 1515 1517 1520 1521 1508
1540 1539 1538 1536 1535 1533 1530 1527 1524 1521 1518 1515 1514 1519 1519 1518 1518 1521 1520 1520 1520 1520 1523 1523 1521 1521 1518 1517 1517 1517 1518 1523 1526 1527 1528 1527 1520 1520 1518 1514 1514 1516 1512 1512 1511 1506 1503
1537 1537 1536 1535 1534 1532 1530 1527 1525 1522 1520 1518 1519 1520 1520 1520 1521 1520 1522 1522 1521 1521 1521 1521 1523 1520 1521 1520 1518 1517 1517 1518 1516 1524 1524 1525 1522 1523 1520 1508 1510 1511 1506 1506 1504 1502 1499
1534 1534 1534 1533 1532 1531 1529 1527 1526 1523 1522 1520 1520 1520 1520 1520 1519 1517 1520 1522 1522 1523 1523 1523 1522 1521 1520 1521 1523 1522 1521 1521 1520 1518 1520 1521 1519 1520 1513 1513 1511 1501 1484 1491 1493 1494 1495
1531 1531 1532 1531 1530 1529 1528 1527 1526 1524 1523 1523 1522 1521 1520 1516 1518 1519 1520 1521 1521 1521 1522 1522 1523 1522 1523 1521 1521 1521 1521 1521 1519 1518 1519 1518 1519 1519 1516 1511 1510 1482 1484 1483 1483 1484 1486
1529 1528 1529 1529 1528 1527 1526 1526 1526 1525 1524 1523 1523 1522 1522 1517 1519 1519 1521 1520 1521 1521 1522 1521 1521 1522 1521 1523 1519 1514 1515 1519 1519 1520 1520 1520 1517 1517 1515 1502 1481 1480 1486 1487 1485 1478 1479
1525 1526 1526 1526 1526 1525 1524 1524 1523 1524 1523 1522 1522 1522 1522 1522 1517 1519 1519 1520 1518 1517 1519 1520 1520 1520 1520 1519 1518 1512 1502 1504 1512 1522 1524 1522 1521 1516 1513 1511 1487 1473 1481 1484 1484 1478 1480
1520 1521 1522 1522 1523 1522 1521 1521 1521 1521 1522 1522 1521 1522 1522 1522 1519 1519 1518 1518 1519 1519 1517 1519 1520 1520 1522 1517 1513 1509 1506 1509 1505 1505 1521 1524 1523 1517 1513 1507 1487 1475 1483 1485 1484 1483 1482
1515 1516 1517 1518 1518 1517 1517 1517 1517 1518 1519 1521 1520 1520 1521 1521 1518 1516 1516 1517 1517 1518 1516 1519 1519 1518 1519 1519 1513 1507 1508 1504 1506 1500 1508 1508 1510 1513 1509 1506 1501 1481 1485 1484 1480 1479 1479
1508 1510 1511 1512 1513 1512 1512 1513 1512 1514 1515 1517 1518 1519 1519 1519 1516 1514 1513 1514 1515 1516 1518 1517 1515 1514 1513 1513 1515 1513 1510 1508 1501 1493 1501 1501 1491 1490 1493 1484 1482 1482 1480 1480 1479 1478 1477